"Pseudo-MPEC" for C15LPY2

Created 2019 Oct 11 18:07:10 UT using Find_Orb

Click here for an explanation of pseudo-MPECs

 
 Astrometry: 
     C15LPY2  C2019 10 10.32420 03 47 04.77 +36 15 20.6    ~AA8b 20.8 GVNEOCPG96
     C15LPY2  C2019 10 10.32899 03 47 05.08 +36 15 12.2    ~AA8b 20.9 GVNEOCPG96
     C15LPY2  C2019 10 10.33378 03 47 05.36 +36 15 04.0    ~AA8b 21.6 GVNEOCPG96
     C15LPY2  C2019 10 10.44881 03 47 11.90 +36 11 43.7    ~AABM 20.5 GVNEOCPI52
     C15LPY2  C2019 10 10.45131 03 47 12.03 +36 11 39.2    ~AABM 20.9 GVNEOCPI52
     C15LPY2  C2019 10 10.45381 03 47 12.18 +36 11 34.8    ~AABM 20.9 GVNEOCPI52
     C15LPY2  C2019 10 10.45631 03 47 12.25 +36 11 32.0    ~AABM 20.5 GVNEOCPI52
     C15LPY2  C2019 10 11.36948 03 48 08.91 +35 44 22.1    ~AB9M 21.5 GVNEOCPI52
     C15LPY2  C2019 10 11.37157 03 48 09.00 +35 44 18.7    ~AB9M       VNEOCPI52
     C15LPY2  C2019 10 11.37365 03 48 09.09 +35 44 13.9    ~AB9M       VNEOCPI52
     C15LPY2  C2019 10 11.37573 03 48 09.21 +35 44 10.7    ~AB9M       VNEOCPI52

Station data:
(G96) Mt. Lemmon Survey  (N32.442754 W110.788720)  US/Arizona.  Observers T.
   A. Pruyne, B. M. Africano, E. J. Christensen, G. A. Farneth, D. C. Fuls,
   A. R. Gibbs, A. D. Grauer, H. Groeller, J. A. Johnson, R. A. Kowalski, S.
   M. Larson, G. J. Leonard, D. Rankin, R. L. Seaman, F. C. Shelly. 1.5-m
   reflector + 10K CCD.
(I52) Steward Observatory, Mt. Lemmon Station  (N32.442547 W110.788920)
   US/Arizona.  Observers T. A. Pruyne, B. M. Africano, E. J. Christensen, G.
   A. Farneth, D. C. Fuls, A. R. Gibbs, A. D. Grauer, H. Groeller, J. A.
   Johnson, R. A. Kowalski, S. M. Larson, G. J. Leonard, D. Rankin, R. L.
   Seaman, F. C. Shelly. 1.0-m reflector + CCD.

Orbital elements:  C15LPY2
   Perihelion 2019 Nov 30.843407 +/- 28.9 TT = 20:14:30 (JD 2458818.343407)
Epoch 2019 Oct 11.0 TT = JDT 2458767.5   Earth MOID: 0.4439   Ma: 0.0211
M 344.64226317 +/- 9                (J2000 ecliptic)          AutoNEOCP
n   0.30205955 +/- 0.0342           Peri.  200.07559 +/- 21
a   2.19992392 +/- 0.162            Node   225.61840 +/- 0.7
e   0.3553036 +/- 0.0355            Incl.   28.52246 +/- 3.0
P   3.26                   H 20.2   G  0.15   U 10.5  
q 1.41828297 +/- 0.0641    Q 2.98156487 +/- 0.269
From 11 observations 2019 Oct. 10-11 (25.2 hr); mean residual 0".39
Residuals in arcseconds: 
191010 G96  .29-  .11+    191010 I52  .13+  .44-    191011 I52  .04+  .47+    
191010 G96  .12+  .07-    191010 I52  .24+  .44-    191011 I52  .23-  .57-    
191010 G96  .17+  .04-    191010 I52  .63-  1.2+    191011 I52  .14-  .01-    
191010 I52  .27+  .33-    191011 I52  .32+  .09+    

Ephemerides (geocentric):
Date (UTC) HH   RA              Dec         delta   r     elong  mag " sig PA
---- -- -- --  -------------   -----------  ------ ------ -----  --- ---- ---
2019 10 11 18  03 48 31.290   +35 32 44.19  .60711 1.4811 133.1 21.2 1.25 125
2019 10 11 19  03 48 33.748   +35 31 27.18  .60676 1.4810 133.2 21.2 1.41 127
2019 10 11 20  03 48 36.201   +35 30 10.04  .60642 1.4809 133.2 21.2 1.59 128
2019 10 11 21  03 48 38.649   +35 28 52.77  .60607 1.4808 133.2 21.2 1.77 128
2019 10 11 22  03 48 41.093   +35 27 35.36  .60572 1.4807 133.3 21.2 1.97 129
2019 10 11 23  03 48 43.531   +35 26 17.83  .60538 1.4806 133.3 21.2 2.17 130
2019 10 12 00  03 48 45.964   +35 25 00.16  .60503 1.4805 133.4 21.2 2.37 130
2019 10 12 01  03 48 48.393   +35 23 42.35  .60469 1.4804 133.4 21.2 2.59 131
2019 10 12 02  03 48 50.817   +35 22 24.42  .60434 1.4803 133.4 21.2 2.82 131
2019 10 12 03  03 48 53.236   +35 21 06.35  .60400 1.4802 133.5 21.2 3.05 132
2019 10 12 04  03 48 55.650   +35 19 48.15  .60365 1.4801 133.5 21.2 3.29 132
2019 10 12 05  03 48 58.059   +35 18 29.82  .60331 1.4800 133.6 21.2 3.54 132
2019 10 12 06  03 49 00.463   +35 17 11.35  .60296 1.4799 133.6 21.2 3.80 133
2019 10 12 07  03 49 02.862   +35 15 52.75  .60262 1.4798 133.7 21.2 4.07 133
2019 10 12 08  03 49 05.257   +35 14 34.02  .60227 1.4797 133.7 21.2 4.35 133
2019 10 12 09  03 49 07.646   +35 13 15.15  .60193 1.4796 133.7 21.2 4.63 133
2019 10 12 10  03 49 10.031   +35 11 56.15  .60159 1.4795 133.8 21.2 4.92 134
2019 10 12 11  03 49 12.410   +35 10 37.02  .60124 1.4794 133.8 21.2 5.22 134
2019 10 12 12  03 49 14.785   +35 09 17.75  .60090 1.4793 133.9 21.2 5.53 134
2019 10 12 13  03 49 17.155   +35 07 58.35  .60056 1.4792 133.9 21.2 5.85 134
2019 10 12 14  03 49 19.520   +35 06 38.82  .60022 1.4791 133.9 21.2 6.18 134
2019 10 12 15  03 49 21.879   +35 05 19.15  .59987 1.4790 134.0 21.2 6.51 135
2019 10 12 16  03 49 24.234   +35 03 59.34  .59953 1.4789 134.0 21.2 6.86 135
2019 10 12 17  03 49 26.585   +35 02 39.41  .59919 1.4788 134.1 21.2 7.21 135
2019 10 12 18  03 49 28.930   +35 01 19.33  .59885 1.4787 134.1 21.2 7.57 135
2019 10 12 19  03 49 31.270   +34 59 59.13  .59851 1.4786 134.2 21.2 7.94 135
2019 10 12 20  03 49 33.605   +34 58 38.79  .59817 1.4785 134.2 21.2 8.32 135
2019 10 12 21  03 49 35.935   +34 57 18.31  .59783 1.4784 134.2 21.2 8.71 135
2019 10 12 22  03 49 38.261   +34 55 57.70  .59749 1.4783 134.3 21.2 9.11 135
2019 10 12 23  03 49 40.581   +34 54 36.95  .59715 1.4782 134.3 21.2 9.51 136
2019 10 13 00  03 49 42.897   +34 53 16.07  .59681 1.4781 134.4 21.2 9.93 136
2019 10 13 01  03 49 45.207   +34 51 55.06  .59647 1.4780 134.4 21.2 10.3 136
2019 10 13 02  03 49 47.513   +34 50 33.91  .59613 1.4779 134.4 21.2 10.8 136
2019 10 13 03  03 49 49.814   +34 49 12.62  .59579 1.4778 134.5 21.2 11.2 136
2019 10 13 04  03 49 52.109   +34 47 51.20  .59545 1.4777 134.5 21.2 11.7 136
2019 10 13 05  03 49 54.400   +34 46 29.64  .59511 1.4776 134.6 21.2 12.1 136
2019 10 13 06  03 49 56.686   +34 45 07.95  .59477 1.4775 134.6 21.2 12.6 136
2019 10 13 07  03 49 58.967   +34 43 46.12  .59444 1.4774 134.7 21.1 13.1 136
2019 10 13 08  03 50 01.243   +34 42 24.16  .59410 1.4773 134.7 21.1 13.6 136
2019 10 13 09  03 50 03.513   +34 41 02.06  .59376 1.4773 134.7 21.1 14.1 137
2019 10 13 10  03 50 05.779   +34 39 39.82  .59342 1.4772 134.8 21.1 14.6 137
2019 10 13 11  03 50 08.040   +34 38 17.45  .59309 1.4771 134.8 21.1 15.1 137
2019 10 13 12  03 50 10.296   +34 36 54.94  .59275 1.4770 134.9 21.1 15.6 137
2019 10 13 13  03 50 12.547   +34 35 32.30  .59241 1.4769 134.9 21.1 16.1 137
2019 10 13 14  03 50 14.793   +34 34 09.51  .59208 1.4768 135.0 21.1 16.7 137
2019 10 13 15  03 50 17.034   +34 32 46.60  .59174 1.4767 135.0 21.1 17.2 137
2019 10 13 16  03 50 19.270   +34 31 23.54  .59141 1.4766 135.0 21.1 17.8 137
2019 10 13 17  03 50 21.502   +34 30 00.35  .59107 1.4765 135.1 21.1 18.3 137